Home   Weather   Taloyoak   Past weeks

Flag for Canada Past Weather in Taloyoak, Nunavut, Canada — Yesterday and Last 2 Weeks

Now
46 °F

Broken clouds.


Feels Like: 42 °F
Forecast: 38 / 48 °F
Wind: 8 mph from South

Location: Spence Bay Airport

Current Time: Sep 24, 2016 at 4:44:38 PM

Latest Report: Sep 24, 2016 at 4:00 PM


Visibility: 15 mi

Pressure: 29.94 "Hg

Humidity: 82%

Dew Point: 41 °F

Location of TaloyoakLocation

Past Weather in Taloyoak — Graph

°F

Taloyoak Temperature Yesterday

Maximum temperature yesterday: 46 °F (at 2:00 PM)
Minimum temperature yesterday: 34 °F (at 12:00 AM)
Average temperature yesterday: 40 °F

High & Low Weather Summary for the Past Weeks

 TemperatureHumidityPressure
High46 °F (Sep 23, 2:00 PM)100% (Sep 11, 11:00 PM)30.00 "Hg (Sep 11, 11:00 PM)
Low23 °F (Sep 14, 3:00 AM)55% (Sep 12, 4:00 PM)28.93 "Hg (Sep 13, 11:00 AM)
Average33 °F85%29.77 "Hg
* Reported Sep 9 3:00 PM — Sep 24 3:00 PM, Taloyoak, Weather by CustomWeather, © 2016

Note: Actual official high and low records may vary slightly from our data, if they occured in-between our weather recording intervals... More about our weather records

Advertising

Taloyoak Weather History for the Previous 24 Hours

Scroll right to see more
 ConditionsComfort  
Time TempWeatherWind HumidityBarometerVisibility
3:00 PM
Sat, Sep 24
46 °FScattered clouds.12 mph87%29.94 "Hg15 mi
2:00 PM45 °FScattered clouds.9 mph87%29.93 "Hg15 mi
1:00 PM45 °FPartly sunny.12 mph87%29.92 "Hg15 mi
12:00 PM43 °FPartly sunny.10 mph87%29.92 "Hg15 mi
11:00 AM43 °FScattered clouds.14 mph87%29.91 "Hg15 mi
10:00 AM43 °FPassing clouds.16 mph87%29.90 "Hg15 mi
9:00 AM41 °FFog.14 mph87%29.90 "Hg15 mi
8:00 AM39 °FPassing clouds.15 mph93%29.90 "Hg15 mi
7:00 AM37 °FFog.16 mph93%29.88 "Hg15 mi
6:00 AM37 °FPassing clouds.14 mph93%29.88 "Hg15 mi
5:00 AM37 °FPassing clouds.14 mph93%29.87 "Hg15 mi
4:00 AM37 °FPassing clouds.13 mph93%29.87 "Hg15 mi
3:00 AM37 °FClear.12 mph93%29.86 "Hg15 mi
2:00 AM39 °FClear.14 mph87%29.85 "Hg15 mi
1:00 AM39 °FClear.13 mph87%29.86 "Hg15 mi
12:00 AM39 °FClear.14 mph87%29.85 "Hg15 mi
11:00 PM
Fri, Sep 23
41 °FClear.15 mph87%29.84 "Hg15 mi
10:00 PM41 °FPassing clouds.16 mph87%29.84 "Hg15 mi
9:00 PM43 °FPassing clouds.17 mph81%29.83 "Hg15 mi
8:00 PM43 °FPassing clouds.17 mph81%29.84 "Hg15 mi
7:00 PM43 °FPassing clouds.16 mph81%29.83 "Hg15 mi
6:00 PM45 °FPassing clouds.15 mph76%29.83 "Hg15 mi
5:00 PM46 °FPassing clouds.15 mph71%29.82 "Hg15 mi
4:00 PM45 °FPassing clouds.16 mph76%29.83 "Hg15 mi
Weather by CustomWeather, © 2016

See weather overviewHow to use our weather pages